Weather History for CYYJ - November, 2012

Change the Weather History Date:

Wednesday, November 7, 2012

  Actual Average Record
Temperature  
Mean Temperature 46 °F -  
Max Temperature 53 °F 48 °F 59 °F (2006)
Min Temperature 38 °F 35 °F 26 °F (2003)
Degree Days  
Heating Degree Days 20    
Moisture  
Dew Point 38 °F    
Average Humidity 73    
Maximum Humidity 94    
Minimum Humidity 50    
Precipitation  
Precipitation 0.02 in 0.19 in - ()
Sea Level Pressure  
Sea Level Pressure 30.06 in    
Wind  
Wind Speed 7 mph ()    
Max Wind Speed 18 mph    
Max Gust Speed -    
Averages and records for this station are not official NWS values.
T = Trace of Precipitation, MM = Missing Value Source: Averaged Metar Reports

Daily Weather History Graph

Daily Weather History Graph

Search for Another Location

Airport or City:

Trip Planner

Search our weather history database for the weather conditions in past years. The results will help you decide how hot, cold, wet, or windy it might be!

Date:

Astronomy

Nov. 07, 2012 Rise Set
Actual Time 7:10 AM PST 4:43 PM PST
Civil Twilight 6:36 AM PST 5:17 PM PST
Nautical Twilight 5:59 AM PST 5:54 PM PST
Astronomical Twilight 5:22 AM PST 6:31 PM PST
Moon No Moon Rise 1:25 PM PST (11/7)
Length of Visible Light 10h 40m
Length of Day
9h 33m
Last Quarter, 42% of the Moon is Illuminated
Nov 7
Last Quarter
Nov 13
New
Nov 20
First Quarter
Nov 28
Full
Dec 6
Last Quarter

Hourly Weather History & Observations

Time (PST) Temp. Windchill Dew Point Humidity Pressure Visibility Wind Dir Wind Speed Gust Speed Precip Events Conditions
12:00 AM 48.2 °F - 41.0 °F 76% 30.01 in 30.0 mi WSW 6.9 mph - N/A   Scattered Clouds
12:44 AM 48.2 °F - - N/A% - 30.0 mi WSW 12.7 mph - N/A Rain Light Rain Showers
1:00 AM 46.4 °F 42.4 °F 39.2 °F 76% 30.02 in 30.0 mi WSW 8.1 mph - N/A   Mostly Cloudy
2:00 AM 48.2 °F - 37.4 °F 66% 30.03 in 30.0 mi WSW 18.4 mph - N/A   Partly Cloudy
3:00 AM 44.6 °F 37.4 °F 37.4 °F 76% 30.05 in 30.0 mi WSW 16.1 mph - N/A   Partly Cloudy
4:00 AM 44 °F - 37 °F 67% 30.06 in 28 mi WSW 12.7 mph - -   Partly Cloudy
4:00 AM 44.6 °F 38.1 °F 37.4 °F 76% 30.06 in 30.0 mi WSW 13.8 mph - N/A   Partly Cloudy
5:00 AM 44.6 °F 40.2 °F 35.6 °F 71% 30.07 in 30.0 mi WSW 8.1 mph - N/A   Partly Cloudy
6:00 AM 44.6 °F 40.2 °F 35.6 °F 71% 30.08 in 30.0 mi WSW 8.1 mph - N/A   Partly Cloudy
7:00 AM 39.2 °F 37.0 °F 33.8 °F 81% 30.10 in 30.0 mi NNE 3.5 mph - N/A   Partly Cloudy
8:00 AM 39.2 °F 35.0 °F 35.6 °F 87% 30.11 in 30.0 mi SW 5.8 mph - N/A   Scattered Clouds
9:00 AM 46.4 °F 44.3 °F 39.2 °F 76% 30.12 in 30.0 mi WSW 4.6 mph - N/A   Partly Cloudy
10:00 AM 50 °F - 37 °F 50% 30.12 in 28 mi WSW 8.1 mph - -   Scattered Clouds
10:00 AM 50.0 °F - 37.4 °F 62% 30.12 in 30.0 mi SW 10.4 mph - N/A   Partly Cloudy
11:00 AM 51.8 °F - 37.4 °F 58% 30.12 in 30.0 mi WSW 5.8 mph - N/A   Partly Cloudy
12:00 PM 51.8 °F - 39.2 °F 62% 30.10 in 30.0 mi SW 10.4 mph - N/A   Scattered Clouds
1:00 PM 53.6 °F - 37.4 °F 54% 30.09 in 30.0 mi SSW 10.4 mph - N/A   Mostly Cloudy
2:00 PM 53.6 °F - 39.2 °F 58% 30.09 in 30.0 mi SW 9.2 mph - N/A   Scattered Clouds
3:00 PM 51.8 °F - 37.4 °F 58% 30.08 in 30.0 mi SW 6.9 mph - N/A   Scattered Clouds
4:00 PM 49 °F - 37 °F 53% 30.07 in 28 mi WNW 5.8 mph - -   Partly Cloudy
4:00 PM 50.0 °F - 37.4 °F 62% 30.07 in 30.0 mi WNW 4.6 mph - N/A   Mostly Cloudy
4:33 PM 50.0 °F - - N/A% - 30.0 mi South 4.6 mph - N/A Rain Light Rain Showers
5:00 PM 48.2 °F - 41.0 °F 76% 30.06 in 30.0 mi SSE 4.6 mph - N/A Rain Light Rain Showers
5:45 PM 46.4 °F - - N/A% - 30.0 mi Calm Calm - N/A   Mostly Cloudy
6:00 PM 46.4 °F - 41.0 °F 81% 30.05 in 30.0 mi Calm Calm - N/A   Mostly Cloudy
7:00 PM 42.8 °F - 39.2 °F 87% 30.04 in 30.0 mi Calm Calm - N/A   Mostly Cloudy
8:00 PM 42.8 °F - 41.0 °F 93% 30.03 in 30.0 mi WNW 2.3 mph - N/A   Mostly Cloudy
8:09 PM 42.8 °F - - N/A% - 30.0 mi WNW 2.3 mph - N/A Rain Light Rain Showers
8:36 PM 44.6 °F - - N/A% - 30.0 mi West 2.3 mph - N/A   Mostly Cloudy
9:00 PM 44.6 °F - 42.8 °F 93% 30.01 in 30.0 mi Calm Calm - N/A   Mostly Cloudy
10:00 PM 42 °F - 41 °F 94% 30.00 in 28 mi WSW 2.3 mph - - Fog Patches of Fog
10:00 PM 42.8 °F - 41.0 °F 93% 30.00 in 30.0 mi West 2.3 mph - N/A Fog Shallow Fog
11:00 PM 41.0 °F 38.0 °F 39.2 °F 93% 29.98 in 30.0 mi ENE 4.6 mph - N/A   Mostly Cloudy